TimePST,TemperatureF,Dew PointF,Humidity,Sea Level PressureIn,VisibilityMPH,Wind Direction,Wind SpeedMPH,Gust SpeedMPH,PrecipitationIn,Events,Conditions,WindDirDegrees,DateUTC
12:18 AM,28.4,28.4,100,30.19,10.0,Calm,Calm,-,N/A,,Mostly Cloudy,0,2013-02-08 08:18:00
12:23 AM,28.4,28.4,100,30.19,10.0,Calm,Calm,-,N/A,,Partly Cloudy,0,2013-02-08 08:23:00
12:33 AM,28.4,28.4,100,30.19,10.0,South,2.3,-,N/A,,Mostly Cloudy,190,2013-02-08 08:33:00
12:43 AM,28.4,28.4,100,30.20,10.0,SSE,1.2,-,N/A,,Scattered Clouds,160,2013-02-08 08:43:00
12:58 AM,27.5,27.3,99,30.22,10.0,North,-9999.0,-,N/A,,Partly Cloudy,0,2013-02-08 08:58:00
1:38 AM,28.4,28.4,100,30.20,10.0,South,2.3,-,N/A,,Mostly Cloudy,180,2013-02-08 09:38:00
1:58 AM,28.8,28.4,99,30.23,10.0,South,3.5,-,N/A,,Mostly Cloudy,190,2013-02-08 09:58:00
2:33 AM,30.2,30.2,100,30.22,10.0,SSE,2.3,-,N/A,,Mostly Cloudy,150,2013-02-08 10:33:00
2:58 AM,27.9,27.7,99,30.24,10.0,South,1.2,-,N/A,,Partly Cloudy,190,2013-02-08 10:58:00
3:18 AM,28.4,28.4,100,30.22,10.0,South,1.2,-,N/A,,Mostly Cloudy,180,2013-02-08 11:18:00
3:58 AM,27.9,27.7,99,30.24,10.0,SSE,3.5,-,N/A,,Scattered Clouds,150,2013-02-08 11:58:00
4:38 AM,28.4,28.4,100,30.23,10.0,ENE,1.2,-,N/A,,Mostly Cloudy,70,2013-02-08 12:38:00
4:43 AM,28.4,26.6,93,30.24,10.0,SE,2.3,-,N/A,,Scattered Clouds,130,2013-02-08 12:43:00
4:58 AM,28.6,28.4,99,30.26,9.0,Calm,Calm,-,N/A,,Partly Cloudy,0,2013-02-08 12:58:00
5:23 AM,28.4,28.4,100,30.25,10.0,Calm,Calm,-,N/A,,Mostly Cloudy,0,2013-02-08 13:23:00
5:58 AM,29.8,29.5,99,30.28,10.0,SSE,3.5,-,N/A,,Overcast,150,2013-02-08 13:58:00
6:03 AM,30.2,30.2,100,30.26,10.0,SE,4.6,-,N/A,,Overcast,140,2013-02-08 14:03:00
6:38 AM,32.0,32.0,100,30.26,10.0,ESE,2.3,-,N/A,,Overcast,110,2013-02-08 14:38:00
6:58 AM,29.8,29.5,99,30.28,10.0,East,1.2,-,N/A,,Mostly Cloudy,100,2013-02-08 14:58:00
7:03 AM,30.2,30.2,100,30.26,10.0,Calm,Calm,-,N/A,,Mostly Cloudy,0,2013-02-08 15:03:00
7:13 AM,30.2,30.2,100,30.26,10.0,SE,2.3,-,N/A,,Scattered Clouds,130,2013-02-08 15:13:00
7:18 AM,28.4,28.4,100,30.26,10.0,Calm,Calm,-,N/A,,Mostly Cloudy,0,2013-02-08 15:18:00
7:28 AM,30.2,30.2,100,30.26,10.0,Calm,Calm,-,N/A,,Mostly Cloudy,0,2013-02-08 15:28:00
7:33 AM,30.2,30.2,100,30.27,10.0,Calm,Calm,-,N/A,,Mostly Cloudy,0,2013-02-08 15:33:00
7:43 AM,32.0,30.2,93,30.27,10.0,Calm,Calm,-,N/A,,Overcast,0,2013-02-08 15:43:00
7:58 AM,31.1,30.9,99,30.30,10.0,Calm,Calm,-,N/A,,Overcast,0,2013-02-08 15:58:00
8:10 AM,32.0,32.0,100,30.28,10.0,Calm,Calm,-,N/A,,Overcast,0,2013-02-08 16:10:00
8:13 AM,32.0,32.0,100,30.28,10.0,Calm,Calm,-,N/A,,Overcast,0,2013-02-08 16:13:00
8:16 AM,32.0,32.0,100,30.28,10.0,Calm,Calm,-,N/A,,Overcast,0,2013-02-08 16:16:00
8:58 AM,34.2,34.0,99,30.31,10.0,Calm,Calm,-,N/A,,Mostly Cloudy,0,2013-02-08 16:58:00
9:58 AM,36.9,36.7,99,30.31,10.0,SSE,2.3,-,N/A,,Overcast,150,2013-02-08 17:58:00
10:13 AM,39.2,37.4,93,30.30,10.0,ESE,1.2,-,N/A,,Overcast,110,2013-02-08 18:13:00
10:48 AM,41.0,39.2,93,30.31,10.0,NW,2.3,-,N/A,,Overcast,310,2013-02-08 18:48:00
10:58 AM,40.6,38.5,92,30.33,10.0,Calm,Calm,-,N/A,,Overcast,0,2013-02-08 18:58:00
11:18 AM,42.8,39.2,87,30.30,10.0,South,3.5,-,N/A,,Overcast,180,2013-02-08 19:18:00
11:28 AM,42.8,39.2,87,30.30,10.0,Variable,1.2,-,N/A,,Overcast,0,2013-02-08 19:28:00
11:58 AM,42.6,37.9,83,30.31,10.0,Calm,Calm,-,N/A,,Mostly Cloudy,0,2013-02-08 19:58:00
12:38 PM,44.6,35.6,71,30.28,10.0,North,4.6,-,N/A,,Mostly Cloudy,350,2013-02-08 20:38:00
12:58 PM,44.6,36.3,73,30.30,10.0,Variable,2.3,-,N/A,,Overcast,0,2013-02-08 20:58:00
1:48 PM,44.6,35.6,71,30.28,10.0,North,6.9,-,N/A,,Overcast,360,2013-02-08 21:48:00
1:58 PM,44.6,35.4,70,30.30,10.0,North,5.8,-,N/A,,Overcast,350,2013-02-08 21:58:00
2:03 PM,44.6,35.6,71,30.28,10.0,North,5.8,-,N/A,,Overcast,10,2013-02-08 22:03:00
2:58 PM,44.8,35.4,70,30.30,10.0,NNE,3.5,-,N/A,,Overcast,20,2013-02-08 22:58:00
3:58 PM,44.6,34.7,68,30.30,10.0,NNE,5.8,-,N/A,,Overcast,20,2013-02-08 23:58:00
4:03 PM,44.6,35.6,71,30.28,10.0,North,6.9,-,N/A,,Overcast,10,2013-02-09 00:03:00
4:58 PM,43.5,35.1,72,30.30,10.0,North,5.8,-,N/A,,Overcast,350,2013-02-09 00:58:00
5:08 PM,42.8,35.6,76,30.28,10.0,North,4.6,-,N/A,,Overcast,360,2013-02-09 01:08:00
5:13 PM,42.8,35.6,76,30.28,10.0,North,4.6,-,N/A,,Overcast,360,2013-02-09 01:13:00
5:43 PM,42.8,35.6,76,30.28,10.0,NNW,4.6,-,N/A,,Overcast,340,2013-02-09 01:43:00
5:58 PM,42.3,35.4,77,30.30,10.0,NW,5.8,-,N/A,,Overcast,320,2013-02-09 01:58:00
6:58 PM,42.3,36.5,80,30.30,10.0,WNW,5.8,-,N/A,,Overcast,300,2013-02-09 02:58:00
7:58 PM,41.7,36.7,82,30.30,10.0,NW,3.5,-,N/A,,Overcast,320,2013-02-09 03:58:00
8:58 PM,41.0,36.9,85,30.31,10.0,NNW,2.3,-,N/A,,Overcast,330,2013-02-09 04:58:00
9:39 PM,41.0,37.4,87,30.28,10.0,North,2.3,-,N/A,Rain,Light Rain,360,2013-02-09 05:39:00
9:49 PM,41.0,37.4,87,30.28,10.0,North,1.2,-,N/A,,Overcast,360,2013-02-09 05:49:00
9:58 PM,41.0,36.9,85,30.30,10.0,North,2.3,-,0.00,,Overcast,10,2013-02-09 05:58:00
10:58 PM,39.2,37.2,93,30.30,10.0,Calm,Calm,-,N/A,,Overcast,0,2013-02-09 06:58:00
11:58 PM,38.1,37.9,99,30.29,10.0,Calm,Calm,-,N/A,,Overcast,0,2013-02-09 07:58:00